DELTA 1 DEB, 12647

Orbit data source: Space-Track

DELTA 1 DEB, 12647 is space debris in LEO originally from a launch on Thu, 29 Jul 1976 UTC launched from the Air Force Western Test Range (AFWTR). Debris objects in space refer to the collection of defunct objects orbiting the Earth. Examples of debris include non-operational satellites, rocket bodies, and fragments generated from explosions, collisions, or faulty payload assembly.

Loading next visibility...
Identifier
12647, 1976-077EA
Orbit
LEO
Country
Flag of USUS
Related business
Manufacturer
Unknown
Mission
Spacecraft
Bus & Motor
Unknown
Mass
Unknown
Launch date (UTC)
1976-07-29 (50 years ago)
Launch vehicle
Unknown
Launch site
Air Force Western Test Range (AFWTR)
Object type
Payload
Rocket body
Debris
Shape & HBR
Unknown shape, 0.1 m
Radar Cross Section
Medium (>0.1 m² and <1 m²)

Expand to show TLE details & history
Last TLE update: 2 days ago

TLE from 2 days ago
0 DELTA 1 DEB
1 12647U 76077EA  26254.13915508 -.00000955  00000-0 -11132-1 0  9998
2 12647 100.6813 312.1068 0370772  73.8922 315.6304 11.86852295 98128
Epoch: 2026-09-11T03:20Z
TLE epoch observation values (Epoch: 2026-09-11T03:20:22.998Z)
Latitude
25.99106°
Longitude
-93.4061°
Altitude
1,533.569 km
Speed
7.192 km/s
True Right ascension
20h 27m 25s
True Declination
25° 52' 09"
Sunlit
Object was in full shadow at epoch
Visualization orbit readout
Latitude
Unknown
Longitude
Unknown
Altitude
Unknown
Speed
Unknown
Apparent Right ascension
Unknown
Apparent Declination
Unknown
Sunlit
N/A
Visualization observer readout
Local Sidereal Time
17:33:43
Azimuth
Unknown
Elevation
Unknown
Doppler factor
Unknown
Orbital elements
Apogee altitude
2,038.753 km
Perigee altitude
1,436.918 km
Semi-major axis
8,115.973 km
Eccentricity
0.03708
Inclination
100.6813°
RAAN
312.1068°
Arg. of periapsis
73.8922°
True anomaly
312.55914°
Mean anomaly
315.6304°
Eccentric anomaly
314.10496°
Mean motion
2.96847 °/min
Orbital period
121.27 mins
BSTAR
-0.011132
Loading maneuver chart data...
Computing Atmospheric mass density...
Loading historical data...
Loading historical data...
Loading historical data...
Loading historical data...
Loading historical data...
Loading historical data...
Loading historical data...

Documentation

Showing up to 5 results
|